�������l�o���
Date,Time,MP-1(��Sv/h),MP-2(��Sv/h),MP-3(��Sv/h),MP-4(��Sv/h),MP-5(��Sv/h),MP-6(��Sv/h),MP-7(��Sv/h),����,����(m/s),���J
2023/07/24,00:00,0.146,0.134,0.214,0.203,0.211,0.118,0.075,��,5.7,��
2023/07/24,00:10,0.145,0.136,0.213,0.205,0.209,0.117,0.075,��,4.8,��
2023/07/24,00:20,0.147,0.135,0.212,0.202,0.210,0.117,0.076,��,4.9,��
2023/07/24,00:30,0.147,0.135,0.214,0.203,0.212,0.117,0.075,��,5.4,��
2023/07/24,00:40,0.145,0.135,0.212,0.204,0.210,0.116,0.075,��,5.1,��
2023/07/24,00:50,0.148,0.136,0.213,0.204,0.211,0.116,0.075,��,5.3,��
2023/07/24,01:00,0.147,0.135,0.214,0.204,0.212,0.117,0.075,��,5.0,��
2023/07/24,01:10,0.146,0.136,0.212,0.205,0.210,0.117,0.074,��,4.4,��
2023/07/24,01:20,0.148,0.134,0.213,0.203,0.210,0.116,0.075,��,4.1,��
2023/07/24,01:30,0.148,0.135,0.213,0.204,0.210,0.117,0.074,��,3.9,��
2023/07/24,01:40,0.146,0.136,0.211,0.205,0.211,0.117,0.075,��,3.4,��
2023/07/24,01:50,0.148,0.135,0.213,0.202,0.208,0.117,0.075,��,3.4,��
2023/07/24,02:00,0.148,0.137,0.213,0.205,0.212,0.118,0.075,��,2.6,��
2023/07/24,02:10,0.146,0.135,0.213,0.204,0.210,0.117,0.075,��,2.7,��
2023/07/24,02:20,0.148,0.135,0.215,0.203,0.210,0.117,0.075,��,2.4,��
2023/07/24,02:30,0.147,0.136,0.211,0.205,0.212,0.118,0.076,��쐼,2.5,��
2023/07/24,02:40,-,-,-,-,-,-,-,-,-,-
2023/07/24,02:50,0.149,0.136,0.212,0.203,0.210,0.117,0.075,��,2.1,��
2023/07/24,03:00,0.148,0.136,0.213,0.205,0.213,0.118,0.076,��쐼,3.1,��
2023/07/24,03:10,0.148,0.135,0.214,0.204,0.209,0.118,0.075,��쐼,2.8,��
2023/07/24,03:20,0.149,0.137,0.213,0.206,0.212,0.117,0.075,��쐼,2.7,��
2023/07/24,03:30,0.147,0.135,0.213,0.206,0.212,0.118,0.075,��쐼,2.0,��
2023/07/24,03:40,0.148,0.137,0.214,0.203,0.210,0.117,0.076,��쐼,2.2,��
2023/07/24,03:50,0.148,0.136,0.214,0.205,0.212,0.117,0.076,��쐼,1.6,��
2023/07/24,04:00,0.148,0.137,0.214,0.204,0.211,0.120,0.075,��쐼,1.0,��
2023/07/24,04:10,0.150,0.137,0.214,0.204,0.211,0.117,0.077,�쐼,1.3,��
2023/07/24,04:20,0.148,0.136,0.216,0.206,0.213,0.118,0.076,��,1.2,��
2023/07/24,04:30,0.148,0.137,0.213,0.202,0.210,0.118,0.076,���k��,0.8,��
2023/07/24,04:40,0.150,0.136,0.215,0.206,0.212,0.119,0.076,�k��,0.7,��
2023/07/24,04:50,0.147,0.137,0.215,0.204,0.212,0.118,0.076,�k��,1.3,��
2023/07/24,05:00,0.151,0.137,0.215,0.206,0.211,0.119,0.077,�k��,1.5,�L
2023/07/24,05:10,0.150,0.137,0.215,0.207,0.214,0.118,0.077,�k�k��,1.1,��
2023/07/24,05:20,0.148,0.138,0.213,0.205,0.211,0.119,0.076,�k��,1.2,��
2023/07/24,05:30,0.150,0.137,0.215,0.207,0.210,0.118,0.076,���k��,0.8,��
2023/07/24,05:40,0.148,0.137,0.214,0.203,0.214,0.118,0.076,�k��,0.7,��
2023/07/24,05:50,0.148,0.137,0.214,0.205,0.212,0.118,0.076,�k��,0.9,��
2023/07/24,06:00,0.149,0.135,0.215,0.206,0.210,0.118,0.076,-,CALM,��
2023/07/24,06:10,0.149,0.136,0.213,0.204,0.213,0.118,0.076,-,CALM,��
2023/07/24,06:20,0.148,0.138,0.214,0.205,0.213,0.118,0.076,-,CALM,��
2023/07/24,06:30,0.149,0.137,0.213,0.205,0.212,0.118,0.077,�k�k��,0.9,��
2023/07/24,06:40,0.148,0.136,0.214,0.204,0.209,0.119,0.076,�k�k��,1.2,��
2023/07/24,06:50,0.148,0.136,0.215,0.205,0.211,0.118,0.076,�k�k��,1.7,��
2023/07/24,07:00,0.147,0.137,0.213,0.206,0.213,0.118,0.076,�k,1.4,��
2023/07/24,07:10,0.149,0.137,0.212,0.205,0.211,0.118,0.076,�k,1.2,��
2023/07/24,07:20,0.149,0.136,0.212,0.203,0.210,0.118,0.076,�k,0.8,��
2023/07/24,07:30,0.147,0.136,0.215,0.202,0.209,0.118,0.077,�k,0.6,��
2023/07/24,07:40,0.148,0.135,0.215,0.202,0.212,0.119,0.076,-,CALM,��
2023/07/24,07:50,0.148,0.135,0.214,0.203,0.211,0.118,0.076,-,CALM,��
2023/07/24,08:00,0.147,0.135,0.213,0.203,0.210,0.118,0.077,-,CALM,��
2023/07/24,08:10,0.148,0.136,0.214,0.203,0.210,0.118,0.076,�k�k��,1.4,��
2023/07/24,08:20,0.148,0.136,0.213,0.203,0.210,0.117,0.077,-,CALM,��
2023/07/24,08:30,0.147,0.136,0.214,0.204,0.210,0.118,0.077,-,CALM,��
2023/07/24,08:40,0.148,0.135,0.214,0.203,0.210,0.118,0.076,���k��,0.7,��
2023/07/24,08:50,0.147,0.137,0.214,0.206,0.211,0.118,0.076,�쓌,0.8,��
2023/07/24,09:00,0.149,0.138,0.213,0.205,0.211,0.119,0.077,��쓌,2.2,��
2023/07/24,09:10,0.148,0.138,0.213,0.206,0.210,0.119,0.076,��,3.7,��
2023/07/24,09:20,0.148,0.136,0.212,0.205,0.211,0.118,0.076,�쓌,3.0,��
2023/07/24,09:30,0.149,0.137,0.214,0.205,0.211,0.118,0.076,�쓌,3.6,��
2023/07/24,09:40,0.148,0.136,0.214,0.204,0.210,0.118,0.075,��,4.0,��
2023/07/24,09:50,0.148,0.136,0.214,0.204,0.211,0.118,0.075,��쓌,4.0,��
2023/07/24,10:00,0.147,0.137,0.213,0.204,0.209,0.117,0.076,��쓌,4.8,��
2023/07/24,10:10,0.146,0.136,0.214,0.204,0.210,0.117,0.075,��쓌,4.9,��
2023/07/24,10:20,0.147,0.136,0.214,0.204,0.212,0.118,0.075,��쓌,6.0,��
2023/07/24,10:30,0.147,0.135,0.214,0.203,0.211,0.117,0.075,��쓌,6.4,��
2023/07/24,10:40,0.148,0.135,0.214,0.204,0.210,0.118,0.075,��쓌,5.6,��
2023/07/24,10:50,0.148,0.136,0.214,0.205,0.211,0.117,0.075,��쓌,6.0,��
2023/07/24,11:00,0.147,0.136,0.213,0.204,0.209,0.118,0.075,��쓌,5.2,��
2023/07/24,11:10,0.146,0.136,0.213,0.205,0.210,0.117,0.075,��,6.1,��
2023/07/24,11:20,0.147,0.136,0.214,0.205,0.210,0.117,0.076,��,5.9,��
2023/07/24,11:30,0.148,0.136,0.213,0.204,0.211,0.116,0.074,��쓌,6.1,��
2023/07/24,11:40,0.148,0.136,0.214,0.203,0.211,0.117,0.075,��쓌,6.6,��
2023/07/24,11:50,0.148,0.136,0.214,0.204,0.211,0.117,0.075,��,6.7,��
2023/07/24,12:00,0.148,0.135,0.213,0.204,0.210,0.117,0.075,��쓌,7.9,��
2023/07/24,12:10,0.148,0.136,0.213,0.205,0.210,0.117,0.075,��쓌,8.5,��
2023/07/24,12:20,0.148,0.135,0.214,0.204,0.210,0.117,0.076,��쓌,7.6,��
2023/07/24,12:30,0.147,0.136,0.213,0.204,0.210,0.117,0.075,��쓌,7.4,��
2023/07/24,12:40,0.147,0.135,0.214,0.205,0.209,0.116,0.075,��쓌,7.2,��
2023/07/24,12:50,0.146,0.136,0.213,0.204,0.210,0.117,0.075,��쓌,7.2,��
2023/07/24,13:00,0.147,0.135,0.213,0.204,0.210,0.117,0.075,��쓌,7.9,��
2023/07/24,13:10,0.147,0.136,0.214,0.204,0.211,0.117,0.075,��쓌,8.3,��
2023/07/24,13:20,0.147,0.136,0.214,0.205,0.211,0.117,0.076,��쓌,7.8,��
2023/07/24,13:30,0.147,0.136,0.213,0.204,0.211,0.118,0.075,��쓌,8.2,��
2023/07/24,13:40,0.147,0.135,0.213,0.204,0.210,0.117,0.075,��쓌,8.2,��
2023/07/24,13:50,0.147,0.135,0.213,0.205,0.210,0.117,0.075,��쓌,7.8,��
2023/07/24,14:00,0.148,0.135,0.212,0.204,0.210,0.116,0.075,��쓌,7.2,��
2023/07/24,14:10,0.148,0.135,0.214,0.204,0.211,0.117,0.074,��쓌,6.5,��
2023/07/24,14:20,0.149,0.136,0.214,0.204,0.210,0.116,0.075,��쓌,5.9,��
2023/07/24,14:30,0.148,0.135,0.213,0.206,0.210,0.117,0.075,��쓌,6.0,��
2023/07/24,14:40,0.148,0.136,0.213,0.204,0.210,0.117,0.075,��,7.4,��
2023/07/24,14:50,0.146,0.135,0.215,0.204,0.209,0.117,0.075,��,6.7,��
2023/07/24,15:00,0.148,0.135,0.213,0.204,0.211,0.117,0.075,��,8.3,��
2023/07/24,15:10,0.148,0.135,0.213,0.204,0.210,0.117,0.076,��,7.3,��
2023/07/24,15:20,0.147,0.136,0.213,0.203,0.209,0.118,0.075,��쓌,6.6,��
2023/07/24,15:30,0.148,0.136,0.214,0.204,0.211,0.117,0.075,��,8.2,��
2023/07/24,15:40,0.147,0.136,0.214,0.204,0.212,0.116,0.074,��쓌,8.3,��
2023/07/24,15:50,0.148,0.134,0.213,0.204,0.208,0.117,0.075,��쓌,7.4,��
2023/07/24,16:00,0.147,0.136,0.214,0.203,0.209,0.117,0.075,��,7.6,��
2023/07/24,16:10,0.147,0.135,0.212,0.203,0.211,0.117,0.074,��쓌,6.9,��
2023/07/24,16:20,0.148,0.135,0.213,0.203,0.210,0.117,0.076,��쓌,6.7,��
2023/07/24,16:30,0.147,0.135,0.212,0.203,0.210,0.117,0.075,��,6.9,��
2023/07/24,16:40,0.148,0.135,0.212,0.206,0.210,0.117,0.075,��쓌,7.1,��
2023/07/24,16:50,0.147,0.135,0.212,0.207,0.210,0.117,0.075,��쓌,7.7,��
2023/07/24,17:00,0.147,0.135,0.215,0.206,0.210,0.118,0.075,��쓌,8.1,��
2023/07/24,17:10,0.148,0.137,0.216,0.205,0.210,0.117,0.076,��쓌,8.4,��
2023/07/24,17:20,0.147,0.137,0.215,0.204,0.210,0.117,0.076,��,8.3,��
2023/07/24,17:30,0.147,0.136,0.214,0.205,0.211,0.118,0.075,��쓌,6.5,��
2023/07/24,17:40,0.147,0.136,0.213,0.206,0.210,0.117,0.075,��쓌,7.3,��
2023/07/24,17:50,0.148,0.135,0.212,0.206,0.209,0.117,0.075,��,7.6,��
2023/07/24,18:00,0.149,0.135,0.215,0.204,0.209,0.117,0.076,��쓌,7.0,��
2023/07/24,18:10,0.148,0.137,0.216,0.204,0.209,0.118,0.076,��,7.3,��
2023/07/24,18:20,0.146,0.136,0.215,0.204,0.211,0.118,0.075,��,7.0,��
2023/07/24,18:30,0.147,0.135,0.213,0.207,0.213,0.118,0.076,��,7.4,��
2023/07/24,18:40,0.148,0.135,0.214,0.205,0.212,0.118,0.076,��,6.8,��
2023/07/24,18:50,0.150,0.135,0.217,0.204,0.210,0.117,0.075,��,7.0,��
2023/07/24,19:00,0.148,0.136,0.215,0.204,0.209,0.119,0.075,��,6.5,��
2023/07/24,19:10,0.146,0.136,0.213,0.207,0.213,0.117,0.075,��,7.0,��
2023/07/24,19:20,0.146,0.134,0.214,0.207,0.212,0.117,0.075,��,7.0,��
2023/07/24,19:30,0.148,0.136,0.215,0.205,0.211,0.117,0.076,��,6.5,��
2023/07/24,19:40,0.149,0.137,0.215,0.203,0.209,0.118,0.076,��,6.2,��
2023/07/24,19:50,0.148,0.135,0.214,0.204,0.212,0.118,0.074,��,5.5,��
2023/07/24,20:00,0.147,0.135,0.213,0.208,0.212,0.117,0.075,��,4.4,��
2023/07/24,20:10,0.148,0.137,0.217,0.206,0.211,0.117,0.076,��,5.1,��
2023/07/24,20:20,0.148,0.136,0.216,0.204,0.209,0.118,0.076,��,5.1,��
2023/07/24,20:30,0.148,0.137,0.213,0.204,0.210,0.118,0.076,��,5.1,��
2023/07/24,20:40,0.147,0.136,0.215,0.207,0.213,0.118,0.075,��,5.2,��
2023/07/24,20:50,0.148,0.137,0.216,0.207,0.211,0.117,0.075,��,5.2,��
2023/07/24,21:00,0.149,0.136,0.214,0.206,0.210,0.118,0.076,��,4.8,��
2023/07/24,21:10,0.148,0.136,0.214,0.205,0.211,0.119,0.076,��,5.2,��
2023/07/24,21:20,0.147,0.137,0.217,0.208,0.214,0.118,0.076,��,4.9,��
2023/07/24,21:30,0.150,0.137,0.216,0.207,0.213,0.117,0.076,��,4.5,��
2023/07/24,21:40,0.148,0.135,0.215,0.204,0.210,0.118,0.076,��쐼,3.1,��
2023/07/24,21:50,0.147,0.138,0.215,0.206,0.212,0.119,0.076,��,3.4,��
2023/07/24,22:00,0.147,0.137,0.217,0.208,0.213,0.117,0.076,��,4.3,��
2023/07/24,22:10,0.149,0.136,0.214,0.206,0.211,0.117,0.077,��쐼,4.1,��
2023/07/24,22:20,0.149,0.136,0.214,0.205,0.211,0.118,0.076,��,3.8,��
2023/07/24,22:30,0.146,0.138,0.215,0.208,0.213,0.119,0.075,��쐼,3.5,��
2023/07/24,22:40,0.148,0.136,0.216,0.206,0.212,0.118,0.076,��쐼,3.4,��
2023/07/24,22:50,0.149,0.136,0.214,0.205,0.210,0.119,0.077,�쐼,4.0,��
2023/07/24,23:00,0.149,0.138,0.217,0.206,0.211,0.119,0.076,��쐼,3.1,��
2023/07/24,23:10,0.148,0.136,0.216,0.208,0.214,0.118,0.076,��쐼,2.9,��
2023/07/24,23:20,0.150,0.137,0.214,0.206,0.211,0.118,0.076,�쐼,2.6,��
2023/07/24,23:30,0.149,0.137,0.216,0.206,0.210,0.119,0.076,��쐼,2.3,��
2023/07/24,23:40,0.149,0.137,0.215,0.208,0.213,0.119,0.076,��쐼,2.4,��
2023/07/24,23:50,0.150,0.137,0.215,0.206,0.214,0.118,0.076,��쐼,2.2,��
